30/04/2024 09:00:00,0.664
30/04/2024 09:15:00,0.663
30/04/2024 09:30:00,0.663
30/04/2024 09:45:00,0.663
30/04/2024 10:00:00,0.663
30/04/2024 10:15:00,0.664
30/04/2024 10:30:00,0.667
30/04/2024 10:45:00,0.67
30/04/2024 11:00:00,0.677
30/04/2024 11:15:00,0.686
30/04/2024 11:30:00,0.697
30/04/2024 11:45:00,0.708
30/04/2024 12:00:00,0.717
30/04/2024 12:15:00,0.725
30/04/2024 12:30:00,0.73
30/04/2024 12:45:00,0.737
30/04/2024 13:00:00,0.742
30/04/2024 13:15:00,0.747
30/04/2024 13:30:00,0.749
30/04/2024 13:45:00,0.752
30/04/2024 14:00:00,0.752
30/04/2024 14:15:00,0.753
30/04/2024 14:30:00,0.755
30/04/2024 14:45:00,0.756
30/04/2024 15:00:00,0.758
30/04/2024 15:15:00,0.762
30/04/2024 15:30:00,0.765
30/04/2024 15:45:00,0.768
30/04/2024 16:00:00,0.769
30/04/2024 16:15:00,0.768
30/04/2024 16:30:00,0.767
30/04/2024 16:45:00,0.764
30/04/2024 17:00:00,0.761
30/04/2024 17:15:00,0.758
30/04/2024 17:30:00,0.755
30/04/2024 17:45:00,0.75
30/04/2024 18:00:00,0.747
30/04/2024 18:15:00,0.743
30/04/2024 18:30:00,0.739
30/04/2024 18:45:00,0.735
30/04/2024 19:00:00,0.732
30/04/2024 19:15:00,0.728
30/04/2024 19:30:00,0.724
30/04/2024 19:45:00,0.721
30/04/2024 20:00:00,0.717
30/04/2024 20:15:00,0.715
30/04/2024 20:30:00,0.712
30/04/2024 20:45:00,0.708
30/04/2024 21:00:00,0.704
30/04/2024 21:15:00,0.701
30/04/2024 21:30:00,0.699
30/04/2024 21:45:00,0.696
30/04/2024 22:00:00,0.692
30/04/2024 22:15:00,0.69
30/04/2024 22:30:00,0.687
30/04/2024 22:45:00,0.684
30/04/2024 23:00:00,0.682
30/04/2024 23:15:00,0.679
30/04/2024 23:30:00,0.676
30/04/2024 23:45:00,0.674
01/05/2024 00:00:00,0.671
01/05/2024 00:15:00,0.669
01/05/2024 00:30:00,0.667
01/05/2024 00:45:00,0.664
01/05/2024 01:00:00,0.662
01/05/2024 01:15:00,0.66
01/05/2024 01:30:00,0.658
01/05/2024 01:45:00,0.655
01/05/2024 02:00:00,0.653
01/05/2024 02:15:00,0.651
01/05/2024 02:30:00,0.649
01/05/2024 02:45:00,0.647
01/05/2024 03:00:00,0.645
01/05/2024 03:15:00,0.644
01/05/2024 03:30:00,0.641
01/05/2024 03:45:00,0.64
01/05/2024 04:00:00,0.638
01/05/2024 04:15:00,0.636
01/05/2024 04:30:00,0.635
01/05/2024 04:45:00,0.633
01/05/2024 05:00:00,0.631
01/05/2024 05:15:00,0.63
01/05/2024 05:30:00,0.628
01/05/2024 05:45:00,0.627
01/05/2024 06:00:00,0.625
01/05/2024 06:15:00,0.623
01/05/2024 06:30:00,0.622
01/05/2024 06:45:00,0.621
01/05/2024 07:00:00,0.62
01/05/2024 07:15:00,0.618
01/05/2024 07:30:00,0.617
01/05/2024 07:45:00,0.615
01/05/2024 08:00:00,0.614
01/05/2024 08:15:00,0.613
01/05/2024 08:30:00,0.612
01/05/2024 08:45:00,0.611
01/05/2024 09:00:00,0.609
01/05/2024 09:15:00,0.609
01/05/2024 09:30:00,0.607
01/05/2024 09:45:00,0.606
01/05/2024 10:00:00,0.605
01/05/2024 10:15:00,0.604
01/05/2024 10:30:00,0.603
01/05/2024 10:45:00,0.602
01/05/2024 11:00:00,0.599
01/05/2024 11:15:00,0.598
01/05/2024 11:30:00,0.596
01/05/2024 11:45:00,0.595
01/05/2024 12:00:00,0.594
01/05/2024 12:15:00,0.592
01/05/2024 12:30:00,0.592
01/05/2024 12:45:00,0.591
01/05/2024 13:00:00,0.591
01/05/2024 13:15:00,0.592
01/05/2024 13:30:00,0.592
01/05/2024 13:45:00,0.592
01/05/2024 14:00:00,0.591
01/05/2024 14:15:00,0.59
01/05/2024 14:30:00,0.589
01/05/2024 14:45:00,0.588
01/05/2024 15:00:00,0.587
01/05/2024 15:15:00,0.587
01/05/2024 15:30:00,0.586
01/05/2024 15:45:00,0.585
01/05/2024 16:00:00,0.584
01/05/2024 16:15:00,0.582
01/05/2024 16:30:00,0.581
01/05/2024 16:45:00,0.581
01/05/2024 17:00:00,0.58
01/05/2024 17:15:00,0.579
01/05/2024 17:30:00,0.578
01/05/2024 17:45:00,0.577
01/05/2024 18:00:00,0.576
01/05/2024 18:15:00,0.575
01/05/2024 18:30:00,0.574
01/05/2024 18:45:00,0.573
01/05/2024 19:00:00,0.572
01/05/2024 19:15:00,0.571
01/05/2024 19:30:00,0.571
01/05/2024 19:45:00,0.569
01/05/2024 20:00:00,0.569
01/05/2024 20:15:00,0.567
01/05/2024 20:30:00,0.566
01/05/2024 20:45:00,0.566
01/05/2024 21:00:00,0.564
01/05/2024 21:15:00,0.564
01/05/2024 21:30:00,0.562
01/05/2024 21:45:00,0.562
01/05/2024 22:00:00,0.561
01/05/2024 22:15:00,0.559
01/05/2024 22:30:00,0.558
01/05/2024 22:45:00,0.558
01/05/2024 23:00:00,0.557
01/05/2024 23:15:00,0.556
01/05/2024 23:30:00,0.555
01/05/2024 23:45:00,0.554
02/05/2024 00:00:00,0.554
02/05/2024 00:15:00,0.552
02/05/2024 00:30:00,0.551
02/05/2024 00:45:00,0.551
02/05/2024 01:00:00,0.551
02/05/2024 01:15:00,0.55
02/05/2024 01:30:00,0.548
02/05/2024 01:45:00,0.548
02/05/2024 02:00:00,0.548
02/05/2024 02:15:00,0.547
02/05/2024 02:30:00,0.547
02/05/2024 02:45:00,0.546
02/05/2024 03:00:00,0.546
02/05/2024 03:15:00,0.545
02/05/2024 03:30:00,0.544
02/05/2024 03:45:00,0.544
02/05/2024 04:00:00,0.544
02/05/2024 04:15:00,0.543
02/05/2024 04:30:00,0.543
02/05/2024 04:45:00,0.543
02/05/2024 05:00:00,0.542
02/05/2024 05:15:00,0.542
02/05/2024 05:30:00,0.541
02/05/2024 05:45:00,0.54
02/05/2024 06:00:00,0.54
02/05/2024 06:15:00,0.54
02/05/2024 06:30:00,0.539
02/05/2024 06:45:00,0.539
02/05/2024 07:00:00,0.539
02/05/2024 07:15:00,0.539
02/05/2024 07:30:00,0.538
02/05/2024 07:45:00,0.538
02/05/2024 08:00:00,0.538
02/05/2024 08:15:00,0.536
02/05/2024 08:30:00,0.536
02/05/2024 08:45:00,0.536
02/05/2024 09:00:00,0.536
02/05/2024 09:15:00,0.536
02/05/2024 09:30:00,0.535
02/05/2024 09:45:00,0.535
02/05/2024 10:00:00,0.535
02/05/2024 10:15:00,0.534
02/05/2024 10:30:00,0.533
02/05/2024 10:45:00,0.533
02/05/2024 11:00:00,0.533
02/05/2024 11:15:00,0.532
02/05/2024 11:30:00,0.532
02/05/2024 11:45:00,0.532
02/05/2024 12:00:00,0.531
02/05/2024 12:15:00,0.531
02/05/2024 12:30:00,0.531
02/05/2024 12:45:00,0.53
02/05/2024 13:00:00,0.53
02/05/2024 13:15:00,0.529
02/05/2024 13:30:00,0.529
02/05/2024 13:45:00,0.529
02/05/2024 14:00:00,0.528
02/05/2024 14:15:00,0.528
02/05/2024 14:30:00,0.528
02/05/2024 14:45:00,0.528
02/05/2024 15:00:00,0.528
02/05/2024 15:15:00,0.528
02/05/2024 15:30:00,0.526
02/05/2024 15:45:00,0.526
02/05/2024 16:00:00,0.526
02/05/2024 16:15:00,0.525
02/05/2024 16:30:00,0.523
02/05/2024 16:45:00,0.521
02/05/2024 17:00:00,0.518
02/05/2024 17:15:00,0.516
02/05/2024 17:30:00,0.515
02/05/2024 17:45:00,0.514
02/05/2024 18:00:00,0.513
02/05/2024 18:15:00,0.513
02/05/2024 18:30:00,0.513
02/05/2024 18:45:00,0.512
02/05/2024 19:00:00,0.512
02/05/2024 19:15:00,0.513
02/05/2024 19:30:00,0.513
02/05/2024 19:45:00,0.514
02/05/2024 20:00:00,0.515
02/05/2024 20:15:00,0.515
02/05/2024 20:30:00,0.516
02/05/2024 20:45:00,0.515
02/05/2024 21:00:00,0.515
02/05/2024 21:15:00,0.516
02/05/2024 21:30:00,0.518
02/05/2024 21:45:00,0.52
02/05/2024 22:00:00,0.52
02/05/2024 22:15:00,0.52
02/05/2024 22:30:00,0.52
02/05/2024 22:45:00,0.519
02/05/2024 23:00:00,0.518
02/05/2024 23:15:00,0.517
02/05/2024 23:30:00,0.516
02/05/2024 23:45:00,0.516
03/05/2024 00:00:00,0.515
03/05/2024 00:15:00,0.515
03/05/2024 00:30:00,0.514
03/05/2024 00:45:00,0.514
03/05/2024 01:00:00,0.513
03/05/2024 01:15:00,0.512
03/05/2024 01:30:00,0.512
03/05/2024 01:45:00,0.512
03/05/2024 02:00:00,0.511
03/05/2024 02:15:00,0.51
03/05/2024 02:30:00,0.51
03/05/2024 02:45:00,0.51
03/05/2024 03:00:00,0.509
03/05/2024 03:15:00,0.509
03/05/2024 03:30:00,0.508
03/05/2024 03:45:00,0.508
03/05/2024 04:00:00,0.508
03/05/2024 04:15:00,0.508
03/05/2024 04:30:00,0.507
03/05/2024 04:45:00,0.507
03/05/2024 05:00:00,0.507
03/05/2024 05:15:00,0.506
03/05/2024 05:30:00,0.506
03/05/2024 05:45:00,0.506
03/05/2024 06:00:00,0.506
03/05/2024 06:15:00,0.505
03/05/2024 06:30:00,0.505
03/05/2024 06:45:00,0.505
03/05/2024 07:00:00,0.505
03/05/2024 07:15:00,0.504
03/05/2024 07:30:00,0.504
03/05/2024 07:45:00,0.503
03/05/2024 08:00:00,0.503
03/05/2024 08:15:00,0.503
03/05/2024 08:30:00,0.503
03/05/2024 08:45:00,0.502
03/05/2024 09:00:00,0.502
03/05/2024 09:15:00,0.502
03/05/2024 09:30:00,0.502
03/05/2024 09:45:00,0.502
03/05/2024 10:00:00,0.502
03/05/2024 10:15:00,0.502
03/05/2024 10:30:00,0.502
03/05/2024 10:45:00,0.502
03/05/2024 11:00:00,0.501
03/05/2024 11:15:00,0.501
03/05/2024 11:30:00,0.501
03/05/2024 11:45:00,0.501
03/05/2024 12:00:00,0.5
03/05/2024 12:15:00,0.5
03/05/2024 12:30:00,0.5
03/05/2024 12:45:00,0.5
03/05/2024 13:00:00,0.5
03/05/2024 13:15:00,0.5
03/05/2024 13:30:00,0.5
03/05/2024 13:45:00,0.499
03/05/2024 14:00:00,0.499
03/05/2024 14:15:00,0.499
03/05/2024 14:30:00,0.499
03/05/2024 14:45:00,0.498
03/05/2024 15:00:00,0.498
03/05/2024 15:15:00,0.499
03/05/2024 15:30:00,0.498
03/05/2024 15:45:00,0.498
03/05/2024 16:00:00,0.498
03/05/2024 16:15:00,0.498
03/05/2024 16:30:00,0.498
03/05/2024 16:45:00,0.499
03/05/2024 17:00:00,0.499
03/05/2024 17:15:00,0.499
03/05/2024 17:30:00,0.499
03/05/2024 17:45:00,0.499
03/05/2024 18:00:00,0.5
03/05/2024 18:15:00,0.5
03/05/2024 18:30:00,0.501
03/05/2024 18:45:00,0.502
03/05/2024 19:00:00,0.502
03/05/2024 19:15:00,0.501
03/05/2024 19:30:00,0.5
03/05/2024 19:45:00,0.498
03/05/2024 20:00:00,0.497
03/05/2024 20:15:00,0.495
03/05/2024 20:30:00,0.493
03/05/2024 20:45:00,0.492
03/05/2024 21:00:00,0.492
03/05/2024 21:15:00,0.495
03/05/2024 21:30:00,0.51
03/05/2024 21:45:00,0.528
03/05/2024 22:00:00,0.536
03/05/2024 22:15:00,0.535
03/05/2024 22:30:00,0.531
03/05/2024 22:45:00,0.525
03/05/2024 23:00:00,0.519
03/05/2024 23:15:00,0.514
03/05/2024 23:30:00,0.508
03/05/2024 23:45:00,0.503
04/05/2024 00:00:00,0.5
04/05/2024 00:15:00,0.497
04/05/2024 00:30:00,0.498
04/05/2024 00:45:00,0.505
04/05/2024 01:00:00,0.51
04/05/2024 01:15:00,0.51
04/05/2024 01:30:00,0.508
04/05/2024 01:45:00,0.507
04/05/2024 02:00:00,0.506
04/05/2024 02:15:00,0.506
04/05/2024 02:30:00,0.508
04/05/2024 02:45:00,0.509
04/05/2024 03:00:00,0.51
04/05/2024 03:15:00,0.511
04/05/2024 03:30:00,0.512
04/05/2024 03:45:00,0.513
04/05/2024 04:00:00,0.514
04/05/2024 04:15:00,0.514
04/05/2024 04:30:00,0.515
04/05/2024 04:45:00,0.516
04/05/2024 05:00:00,0.516
04/05/2024 05:15:00,0.516
04/05/2024 05:30:00,0.517
04/05/2024 05:45:00,0.518
04/05/2024 06:00:00,0.518
04/05/2024 06:15:00,0.518
04/05/2024 06:30:00,0.518
04/05/2024 06:45:00,0.518
04/05/2024 07:00:00,0.518
04/05/2024 07:15:00,0.518
04/05/2024 07:30:00,0.517
04/05/2024 07:45:00,0.517
04/05/2024 08:00:00,0.517
04/05/2024 08:15:00,0.517
04/05/2024 08:30:00,0.517
04/05/2024 08:45:00,0.516
04/05/2024 09:00:00,0.516
04/05/2024 09:15:00,0.516
04/05/2024 09:30:00,0.516
04/05/2024 09:45:00,0.516
04/05/2024 10:00:00,0.517
04/05/2024 10:15:00,0.516
04/05/2024 10:30:00,0.516
04/05/2024 10:45:00,0.516
04/05/2024 11:00:00,0.516
04/05/2024 11:15:00,0.516
04/05/2024 11:30:00,0.516
04/05/2024 11:45:00,0.516
04/05/2024 12:00:00,0.516
04/05/2024 12:15:00,0.515
04/05/2024 12:30:00,0.515
04/05/2024 12:45:00,0.515
04/05/2024 13:00:00,0.514
04/05/2024 13:15:00,0.514
04/05/2024 13:30:00,0.514
04/05/2024 13:45:00,0.514
04/05/2024 14:00:00,0.514
04/05/2024 14:15:00,0.514
04/05/2024 14:30:00,0.513
04/05/2024 14:45:00,0.513
04/05/2024 15:00:00,0.513
04/05/2024 15:15:00,0.513
04/05/2024 15:30:00,0.513
04/05/2024 15:45:00,0.512
04/05/2024 16:00:00,0.512
04/05/2024 16:15:00,0.511
04/05/2024 16:30:00,0.511
04/05/2024 16:45:00,0.511
04/05/2024 17:00:00,0.51
04/05/2024 17:15:00,0.51
04/05/2024 17:30:00,0.51
04/05/2024 17:45:00,0.51
04/05/2024 18:00:00,0.51
04/05/2024 18:15:00,0.51
04/05/2024 18:30:00,0.51
04/05/2024 18:45:00,0.51
04/05/2024 19:00:00,0.51
04/05/2024 19:15:00,0.51
04/05/2024 19:30:00,0.51
04/05/2024 19:45:00,0.51
04/05/2024 20:00:00,0.509
04/05/2024 20:15:00,0.509
04/05/2024 20:30:00,0.509
04/05/2024 20:45:00,0.51
04/05/2024 21:00:00,0.51
04/05/2024 21:15:00,0.51
04/05/2024 21:30:00,0.51
04/05/2024 21:45:00,0.51
04/05/2024 22:00:00,0.51
04/05/2024 22:15:00,0.51
04/05/2024 22:30:00,0.511
04/05/2024 22:45:00,0.512
04/05/2024 23:00:00,0.512
04/05/2024 23:15:00,0.512
04/05/2024 23:30:00,0.512
04/05/2024 23:45:00,0.512
05/05/2024 00:00:00,0.512
05/05/2024 00:15:00,0.512
05/05/2024 00:30:00,0.513
05/05/2024 00:45:00,0.513
05/05/2024 01:00:00,0.513
05/05/2024 01:15:00,0.514
05/05/2024 01:30:00,0.514
05/05/2024 01:45:00,0.514
05/05/2024 02:00:00,0.515
05/05/2024 02:15:00,0.515
05/05/2024 02:30:00,0.515
05/05/2024 02:45:00,0.516
05/05/2024 03:00:00,0.516
05/05/2024 03:15:00,0.516
05/05/2024 03:30:00,0.516
05/05/2024 03:45:00,0.516
05/05/2024 04:00:00,0.517
05/05/2024 04:15:00,0.517
05/05/2024 04:30:00,0.517
05/05/2024 04:45:00,0.518
05/05/2024 05:00:00,0.518
05/05/2024 05:15:00,0.518
05/05/2024 05:30:00,0.518
05/05/2024 05:45:00,0.519
05/05/2024 06:00:00,0.519
05/05/2024 06:15:00,0.519
05/05/2024 06:30:00,0.519
05/05/2024 06:45:00,0.519
05/05/2024 07:00:00,0.519
05/05/2024 07:15:00,0.519
05/05/2024 07:30:00,0.519
05/05/2024 07:45:00,0.519
05/05/2024 08:00:00,0.519
